Location: Asheville, NC
(35.6000°N, 82.5500°W)
Time: 00:26:19
(UTC-04:00)

Vanguard 1 - Pass Details

Date: 09 March 2018
Orbit: 650 x 3833 km, 34.3° (Epoch: 24 June)

Event Time Altitude Azimuth Distance (km) Brightness Sun altitude
Rises 15:03:30 0° 282° (WNW) 7,622 15.0 38.0°
Reaches altitude 10° 15:09:12 10° 281° (W) 6,268 14.7 37.1°
Maximum altitude 15:26:59 67° 204° (SSW) 2,285 13.0 34.3°
Drops below altitude 10° 15:36:25 10° 123° (ESE) 3,539 12.8 32.7°
Sets 15:38:44 0° 121° (ESE) 4,229 13.1 32.3°
